Погода в Гранд-Форксе

США     47°55′24″N   97°01′55″W
темп.,
°C
ветер,
м/с
пор.,
м/с
влажн.,
%
обл.,
%
осадки,
мм/ч
давл.,
гПа
погр.,
м
19 апреля, пн
пн1901:00−2ссз7116790 0.1 10221092
04:00−3ссз6106671 0.0 1023908
07:00−3ссз610675 0.0 1023938
10:00−1ссз71052100 0.1 10231719
13:00+2ссз7944100 0.1 10232142
16:00+2ссз6841100 0.0 10221953
19:00+2с574295 0.0 10221729
22:00−1с35575 0.0 1023108
20 апреля, вт
вт2001:00−2ссз376011 0.0 1023223
04:00−2ссз256896 0.0 1023152
07:00−3сз376631 0.0 1024329
10:00+1ссз674423 0.0 10241390
13:00+2ссз6740100 0.0 10242093
16:00+3ссз6738100 0.0 10232270
19:00+2ссз6741100 0.0 10231733
22:000с37535 0.1 1024262
21 апреля, ср
ср2101:00−2ссз25645 0.1 1024188
04:00−3сз24705 0.0 1024142
07:00−3сз24664 0.0 1024167
10:00+1сз344815 0.0 10241210
13:00+5сз3540100 0.0 10221618
16:00+8зсз4639100 0.0 10201991
19:00+9зсз363641 0.0 10181870
22:00+6ююз33505 0.0 101736
22 апреля, чт
чт2201:00+4ююз48595 0.0 1017144
04:00+3юз49612 0.0 1016164
07:00+3юз411611 0.0 1015201
10:00+10зюз69365 0.0 1014585
13:00+15юз68245 0.0 10121966
16:00+17юз78210 0.0 10092586
19:00+16ююз68240 0.0 10081741
22:00+11ю613390 0.0 1008268
23 апреля, пт
пт2301:00+10ю615478 0.0 1007360
04:00+8ююз5126856 0.0 1007356
07:00+5ссз358398 0.0 1009220
10:00+6с5570100 0.0 1011723
13:00+4с7767100 0.0 1013833
16:00+2с8970100 0.0 1014831
19:00−1с71193100 1.3 1016769
22:00−2ссз71295100 2.6 1018643